[[{"header":{"parameterUnit":"m.s-1","parameterCategory":1,"la1":30.2991,"la2":30.254,"lo1":-89.0895,"lo2":-89.0444,"dy":0.0017,"dx":0.0017,"nx":28,"ny":28,"refTime":"2025-02-25T09:00:00:Z","depth":0,"parameterNumber":2,"parameterNumberName":"U-component_of_WINDS"},"data":[0,0,0,0,0,0,0,0,0,0,0,0,0,0,0,0,0,0,0,0,0,0,0,0,0,0,0,0,0,0,0,0,0,0,0,0,0,0,0,0,0,0,0,0,0,0,0,0,0,0,0,0,0,0,0,0,0,0,0.3648,0.3648,0,0.3644,0.3644,0.3643,0.3662,0.3662,0.3663,0.3663,0.3657,0.3656,0.3655,0,0,0,0,0,0,0,0,0,0,0,0,0,0.367,0.367,0.3648,0.3648,0.3648,0.3644,0.3644,0.3643,0.3662,0.3662,0.3663,0.3664,0.3657,0.3656,0.3655,0,0,0,0,0,0,0,0,0,0,0,0,0,0.3663,0.367,0.3648,0.3657,0.3657,0.3644,0.3644,0.3643,0.3662,0.3662,0.3663,0.3664,0.3657,0.3656,0.3655,0.3633,0,0,0.3652,0.3652,0,0,0,0,0,0,0,0,0.3663,0.3662,0.3655,0.3656,0.3657,0.3654,0.3649,0.364,0.3661,0.366,0.3663,0.3664,0.3655,0.3654,0.3652,0.3632,0.3632,0.3652,0.3651,0.3651,0.3651,0,0,0,0,0,0,0,0.3663,0.3662,0.3646,0.3655,0.3656,0.366,0.366,0.3647,0.3653,0.366,0.3661,0.3661,0.3656,0.3653,0.3652,0.3632,0.3652,0.3651,0.365,0.365,0.3593,0.3592,0,0,0,0,0,0,0.3663,0.3662,0.3646,0.3646,0.3662,0.3659,0.3659,0.3654,0.3653,0.3654,0.366,0.3662,0.3654,0.3653,0.3651,0.3624,0.3651,0.365,0.3649,0.3594,0.3593,0.3592,0,0,0,0,0,0,0.3664,0.3662,0.3647,0.3655,0.3653,0.3658,0.3652,0.3654,0.3651,0.3653,0.3654,0.3656,0.3654,0.3653,0.3637,0.3624,0.365,0.3649,0.3595,0.3594,0.3592,0.357,0,0,0,0,0,0,0.3664,0.3662,0.3653,0.3654,0.3652,0.3633,0.3652,0.3653,0.3649,0.3651,0.365,0.365,0.3655,0.3639,0.3636,0.3623,0.3648,0.3596,0.3594,0.3593,0.3572,0.3568,0.3565,0,0,0,0,0,0.3665,0.3647,0.3653,0.3651,0.3642,0.3632,0.3631,0.3638,0.3648,0.3639,0.3641,0.365,0.3626,0.3637,0.3634,0.3621,0.3597,0.3595,0.3593,0.3574,0.3569,0.3565,0,0,0,0,0,0,0.3644,0.3647,0.3654,0.3636,0.3634,0.3635,0.3625,0.3633,0.3627,0.3629,0.3637,0.3636,0.3619,0.3618,0.363,0.3599,0.3613,0.3611,0.3599,0.3595,0.3592,0.3592,0.3647,0,0,0,0,0,0.3637,0.3629,0.3632,0.3616,0.3615,0.362,0.3616,0.3621,0.3619,0.3618,0.3618,0.3615,0.3607,0.3601,0.3594,0.3572,0.3572,0.3562,0.3558,0.3555,0.3553,0.3541,0.3536,0.3585,0.3585,0.3585,0,0,0.3623,0.3624,0.3618,0.3612,0.3611,0.3601,0.3619,0.3608,0.3601,0.3616,0.3601,0.3601,0.3598,0.3579,0.3571,0.3578,0.3539,0.3553,0.355,0.3549,0.3538,0.3534,0.3529,0.3584,0.3584,0.3584,0,0,0.3593,0.3593,0.3579,0.3578,0.3576,0.358,0.3577,0.3577,0.3578,0.3563,0.3574,0.3565,0.3551,0.3548,0.3545,0.3514,0.3522,0.3511,0.3492,0.3481,0.3477,0.3473,0.3461,0.3457,0.3509,0.3509,0.3509,0,0.3575,0.3562,0.3571,0.356,0.3556,0.357,0.3556,0.3554,0.3549,0.3546,0.3555,0.3537,0.3536,0.3517,0.3509,0.3506,0.3502,0.3511,0.3477,0.3473,0.347,0.3459,0.3455,0.3507,0.3508,0.3508,0.3508,0,0.354,0.3531,0.352,0.3517,0.3512,0.3499,0.3505,0.35,0.3506,0.3508,0.3493,0.3492,0.3485,0.3481,0.3486,0.3462,0.3466,0.3476,0.349,0.3464,0.3454,0.345,0.3506,0.3506,0.3506,0.3507,0,0,0.3495,0.3497,0.3493,0.3491,0.3491,0.3484,0.3471,0.3465,0.3459,0.3456,0.3445,0.3433,0.3442,0.3438,0.3444,0.3433,0.3408,0.3444,0.3444,0.3437,0.338,0.3372,0.3367,0.3413,0.3413,0.3412,0.338,0,0.3465,0.3445,0.3453,0.3431,0.3423,0.3436,0.3425,0.3423,0.3425,0.3417,0.3419,0.341,0.3423,0.3421,0.3412,0.3413,0.3396,0.3415,0.3403,0.3402,0.3402,0.3362,0.3354,0.3324,0.3376,0.3375,0.3375,0,0.3427,0.3422,0.3401,0.3402,0.3398,0.3388,0.3383,0.3376,0.3374,0.3376,0.3372,0.3379,0.3367,0.3382,0.3364,0.3377,0.3372,0.3372,0.3371,0.3369,0.3386,0.3358,0.3314,0.3309,0.3369,0.3369,0.337,0,0.3395,0.3384,0.337,0.3368,0.3369,0.3362,0.3361,0.336,0.3356,0.3351,0.3348,0.3341,0.3337,0.3332,0.3337,0.3348,0.3318,0.3334,0.3318,0.3318,0.3311,0.3311,0.3264,0.3309,0.3309,0.3309,0.3309,0,0.336,0.3346,0.3355,0.3346,0.3331,0.334,0.3324,0.3325,0.3324,0.3315,0.3326,0.3317,0.3324,0.3316,0.332,0.3304,0.3302,0.3303,0.3304,0.3302,0.3301,0.3298,0.33,0.3308,0.3308,0.3308,0.3309,0,0.3321,0.3328,0.3312,0.3315,0.3315,0.3304,0.3305,0.3296,0.33,0.3288,0.3286,0.329,0.3281,0.3286,0.3276,0.3278,0.3258,0.3262,0.3258,0.3259,0.3243,0.3244,0.3192,0.3185,0.3235,0.3235,0.3234,0,0.3298,0.3287,0.3289,0.3284,0.3283,0.3275,0.3271,0.3279,0.3274,0.3271,0.3263,0.3255,0.3248,0.3232,0.3234,0.3227,0.323,0.3212,0.3229,0.3227,0.3229,0.3229,0.3228,0.3209,0.3208,0.3208,0.3207,0,0.3255,0.3259,0.3253,0.3248,0.3242,0.3239,0.3236,0.3231,0.3239,0.3233,0.3224,0.3219,0.3209,0.32,0.3194,0.3193,0.3201,0.3202,0.3198,0.3195,0.3193,0.3193,0.3248,0.3203,0.3203,0.3204,0.3204,0.3204,0.3223,0.3214,0.3214,0.3207,0.3206,0.3203,0.3194,0.3197,0.319,0.3183,0.3188,0.3177,0.3175,0.3168,0.3166,0.3156,0.3163,0.3158,0.3156,0.3154,0.3152,0.3195,0.3155,0.3156,0.3156,0.3156,0.3156,0,0.318,0.3181,0.3174,0.317,0.3164,0.3174,0.3171,0.3165,0.3155,0.3153,0.3147,0.3137,0.3128,0.313,0.3122,0.3115,0.3118,0.3112,0.3112,0.3112,0.3146,0.315,0.3109,0.3109,0.3109,0.3109,0.3109,0.3109,0.3157,0.3142,0.3146,0.3131,0.3132,0.3122,0.3119,0.3116,0.3115,0.3103,0.3096,0.3098,0.3097,0.3089,0.3082,0.3082,0.3078,0.3071,0.3073,0.3105,0.3109,0.3114,0.3117,0.307,0.307,0.3039,0.3039,0.3038]},{"header":{"parameterUnit":"m.s-1","parameterCategory":1,"la1":30.2991,"la2":30.254,"lo1":-89.0895,"lo2":-89.0444,"dy":0.0017,"dx":0.0017,"nx":28,"ny":28,"refTime":"2025-02-25T09:00:00:Z","depth":0,"parameterNumber":3,"parameterNumberName":"V-component_of_WINDS"},"data":[0,0,0,0,0,0,0,0,0,0,0,0,0,0,0,0,0,0,0,0,0,0,0,0,0,0,0,0,0,0,0,0,0,0,0,0,0,0,0,0,0,0,0,0,0,0,0,0,0,0,0,0,0,0,0,0,0,0,0.7504,0.7505,0,0.7567,0.7568,0.7568,0.7593,0.7592,0.7592,0.7592,0.7655,0.7656,0.7658,0,0,0,0,0,0,0,0,0,0,0,0,0,0.7404,0.7406,0.7504,0.7505,0.7506,0.7567,0.7568,0.7568,0.7593,0.7592,0.7592,0.7592,0.7654,0.7656,0.7658,0,0,0,0,0,0,0,0,0,0,0,0,0,0.7455,0.7406,0.7504,0.7525,0.7528,0.7567,0.7568,0.7569,0.7593,0.7592,0.7592,0.7592,0.7653,0.7656,0.7659,0.7681,0,0,0.7667,0.7668,0,0,0,0,0,0,0,0,0.7452,0.7459,0.7521,0.7524,0.7527,0.7572,0.7555,0.7606,0.7593,0.7568,0.7592,0.7592,0.7627,0.7632,0.7644,0.7683,0.7686,0.7667,0.7669,0.767,0.7671,0,0,0,0,0,0,0,0.7449,0.7456,0.7529,0.7522,0.7525,0.7531,0.7538,0.7565,0.7598,0.757,0.7572,0.7579,0.7628,0.7642,0.7646,0.7687,0.7667,0.7669,0.7671,0.7672,0.7749,0.7749,0,0,0,0,0,0,0.7442,0.7453,0.7527,0.7531,0.7488,0.7533,0.7541,0.7557,0.7598,0.7604,0.7579,0.758,0.7637,0.7643,0.7648,0.7678,0.767,0.7673,0.7674,0.7748,0.7749,0.7749,0,0,0,0,0,0,0.744,0.7448,0.7524,0.7493,0.7503,0.7535,0.7553,0.7559,0.7572,0.7605,0.7611,0.7587,0.7637,0.7644,0.7673,0.768,0.7674,0.7676,0.7748,0.7749,0.7749,0.7736,0,0,0,0,0,0,0.7437,0.7447,0.7456,0.7493,0.7504,0.7548,0.7554,0.756,0.7577,0.7578,0.7613,0.7619,0.7637,0.7669,0.7675,0.7684,0.7678,0.7747,0.7748,0.7749,0.7736,0.7736,0.7736,0,0,0,0,0,0.7433,0.7449,0.7456,0.7465,0.7516,0.7548,0.7555,0.7577,0.7577,0.7586,0.7608,0.7618,0.7678,0.7671,0.7679,0.7688,0.7747,0.7748,0.7749,0.7736,0.7736,0.7736,0,0,0,0,0,0,0.7412,0.7454,0.7463,0.7491,0.7516,0.7553,0.7565,0.7576,0.7601,0.7601,0.7626,0.7634,0.766,0.7677,0.7669,0.7712,0.7713,0.7716,0.7701,0.7701,0.7701,0.7697,0.7681,0,0,0,0,0,0.741,0.7434,0.7469,0.7491,0.7503,0.7532,0.7547,0.7561,0.7588,0.7598,0.7622,0.7647,0.7671,0.7687,0.7711,0.7738,0.7747,0.7749,0.7749,0.7749,0.7751,0.7767,0.7769,0.7752,0.7752,0.7752,0,0,0.7408,0.7434,0.7447,0.7487,0.7508,0.7532,0.754,0.7564,0.7582,0.7602,0.7631,0.7649,0.7678,0.7706,0.772,0.7721,0.7757,0.775,0.7749,0.7752,0.7768,0.777,0.7771,0.7753,0.7753,0.7753,0,0,0.7415,0.7437,0.7458,0.7479,0.7512,0.7531,0.7536,0.7571,0.7584,0.7613,0.7629,0.765,0.7692,0.7713,0.7728,0.7745,0.7755,0.7752,0.7753,0.7769,0.777,0.7771,0.7778,0.778,0.7754,0.7754,0.7754,0,0.7408,0.7444,0.7467,0.7491,0.7509,0.7529,0.755,0.757,0.7608,0.7619,0.762,0.7674,0.7695,0.7729,0.7734,0.7745,0.7752,0.7748,0.7768,0.777,0.7771,0.7778,0.778,0.7753,0.7753,0.7754,0.7754,0,0.7434,0.7459,0.7472,0.751,0.7529,0.7551,0.7578,0.7594,0.7607,0.7626,0.7657,0.7683,0.7714,0.7722,0.7735,0.7758,0.7758,0.7763,0.7765,0.7772,0.7779,0.7781,0.7753,0.7753,0.7753,0.7753,0,0,0.7429,0.748,0.7485,0.7503,0.754,0.756,0.7583,0.7614,0.7628,0.7654,0.7675,0.771,0.7716,0.7734,0.7749,0.7763,0.7776,0.7766,0.7767,0.7768,0.7804,0.7801,0.7803,0.7782,0.7783,0.7783,0.7802,0,0.7442,0.7486,0.7508,0.7542,0.7566,0.7586,0.7607,0.7632,0.765,0.7673,0.7693,0.7719,0.7723,0.7735,0.7749,0.7771,0.7783,0.777,0.7802,0.7803,0.7795,0.7807,0.7803,0.7819,0.7805,0.7805,0.7805,0,0.7463,0.749,0.7527,0.7563,0.7574,0.7592,0.7623,0.7644,0.7673,0.7686,0.7707,0.7722,0.7748,0.7747,0.7783,0.7774,0.7788,0.7801,0.7802,0.7806,0.7805,0.7812,0.7825,0.7827,0.781,0.7809,0.7809,0,0.7457,0.7502,0.7531,0.7545,0.7587,0.76,0.7618,0.7647,0.7665,0.7692,0.7703,0.7732,0.7748,0.777,0.7793,0.779,0.7827,0.7828,0.7838,0.7838,0.7845,0.7845,0.7861,0.7853,0.7853,0.7853,0.7853,0,0.7469,0.7491,0.7529,0.7546,0.7572,0.7597,0.7622,0.7641,0.7667,0.7689,0.7707,0.7727,0.7755,0.7778,0.7796,0.7824,0.783,0.7841,0.7846,0.784,0.7839,0.785,0.785,0.7854,0.7854,0.7854,0.7854,0,0.7467,0.7493,0.7525,0.7563,0.7573,0.759,0.7623,0.7641,0.7661,0.7688,0.7696,0.7727,0.7755,0.778,0.7817,0.7829,0.7858,0.7863,0.7848,0.7851,0.786,0.786,0.7885,0.7891,0.7878,0.7878,0.7879,0,0.7473,0.7491,0.7531,0.7548,0.7566,0.7592,0.761,0.7636,0.7654,0.769,0.7703,0.7734,0.7759,0.7804,0.783,0.7858,0.7865,0.7872,0.7869,0.7863,0.7866,0.7865,0.7867,0.7872,0.7872,0.7872,0.7872,0,0.7482,0.7495,0.7521,0.7552,0.7574,0.76,0.7626,0.7638,0.7669,0.7688,0.7719,0.7739,0.7778,0.7808,0.784,0.7858,0.787,0.7873,0.7877,0.7872,0.7863,0.7869,0.785,0.7872,0.7872,0.7872,0.7872,0.7872,0.7485,0.7502,0.7534,0.7563,0.7586,0.761,0.7629,0.7652,0.7678,0.7712,0.7726,0.7757,0.7786,0.7831,0.7849,0.7874,0.7876,0.7881,0.7883,0.7884,0.7884,0.7859,0.788,0.788,0.788,0.788,0.788,0,0.7496,0.7517,0.7544,0.7581,0.7604,0.7614,0.7644,0.7663,0.769,0.7717,0.7743,0.7778,0.7807,0.7836,0.7867,0.7881,0.7887,0.7888,0.7888,0.7892,0.788,0.7874,0.7882,0.7882,0.7882,0.7882,0.7882,0.7882,0.7504,0.7534,0.7551,0.7592,0.7614,0.7645,0.7661,0.7684,0.7706,0.7745,0.777,0.7789,0.7817,0.785,0.7878,0.7885,0.7896,0.7895,0.7904,0.7893,0.7892,0.7892,0.7886,0.7897,0.7897,0.7915,0.7915,0.7915]}]]